Location: Cisewo
(53.3833°N, 14.9000°E)
Time: 11:11:45
(UTC+00:00)

Oscar 19 - Visible Passes

Search period start: 24 September 2021 00:00
Search period end: 04 October 2021 00:00
Orbit: 774 x 789 km, 98.8° (Epoch: 23 September)

Date Brightness Start Highest point End Pass type
(mag) Time Alt. Az. Time Alt. Az. Time Alt. Az.
24 Sep 13.0 00:44:40 10° NE 00:47:53 16° E 00:49:52 14° ESE visible
24 Sep 10.6 02:22:43 10° NNE 02:27:57 88° ESE 02:30:24 32° SSW visible
24 Sep 12.1 04:02:54 10° N 04:06:38 20° NW 04:10:21 10° W visible
25 Sep 11.3 01:50:50 10° NNE 01:55:55 51° E 01:57:57 33° SSE visible
25 Sep 11.5 03:30:28 10° N 03:35:01 32° WNW 03:38:29 15° WSW visible
26 Sep 12.2 01:19:10 10° NNE 01:23:43 30° E 01:25:29 24° SE visible
26 Sep 10.8 02:58:13 10° N 03:03:16 52° WNW 03:06:02 25° SW visible
27 Sep 12.9 00:47:59 10° NE 00:51:22 17° E 00:53:02 15° ESE visible
27 Sep 10.5 02:26:10 10° NNE 02:31:23 88° WNW 02:33:34 36° SSW visible
27 Sep 12.1 04:06:24 10° N 04:10:01 20° NW 04:13:38 10° W visible
28 Sep 11.2 01:54:15 10° NNE 01:59:21 54° E 02:01:06 37° SSE visible
28 Sep 11.5 03:33:57 10° N 03:38:25 30° WNW 03:41:39 16° WSW visible
29 Sep 12.1 01:22:34 10° NNE 01:27:10 31° E 01:28:39 27° SE visible
29 Sep 10.9 03:01:41 10° N 03:06:42 49° WNW 03:09:11 27° SW visible
30 Sep 12.8 00:51:19 10° NE 00:54:51 18° E 00:56:11 17° ESE visible
30 Sep 10.5 02:29:36 10° NNE 02:34:49 84° WNW 02:36:43 40° SSW visible
30 Sep 12.2 04:09:54 10° N 04:13:25 19° NW 04:16:55 10° W visible
01 Oct 11.1 01:57:40 10° NNE 02:02:48 57° ESE 02:04:15 42° SSE visible
01 Oct 11.6 03:37:25 10° N 03:41:50 29° WNW 03:44:48 17° WSW visible
02 Oct 12.0 01:25:58 10° NNE 01:30:38 33° E 01:31:47 30° ESE visible
02 Oct 10.9 03:05:09 10° N 03:10:06 47° WNW 03:12:20 29° WSW visible
03 Oct 12.7 00:54:39 10° NE 00:58:19 19° E 00:59:19 18° ESE visible
03 Oct 10.5 02:33:02 10° NNE 02:38:15 80° WNW 02:39:52 45° SSW visible
03 Oct 12.2 04:13:25 10° N 04:16:48 18° NW 04:20:11 10° W visible
